Le Mars, IA

8:51 PM CST on November 22, 2017 (GMT -0600)
Le Mars Municipal

Weather History for KLRJ - August, 2014

Change the Weather History Date:

Saturday, August 30, 2014

  Actual Average Record
Temperature  
Mean Temperature 68 °F -  
Max Temperature 73 °F 84 °F 98 °F (2012)
Min Temperature 62 °F 60 °F 44 °F (2006)
Cooling Degree Days 2    
Growing Degree Days 18 (Base 50)    
Moisture  
Dew Point 63 °F    
Average Humidity 86    
Maximum Humidity 100    
Minimum Humidity 69    
Precipitation  
Precipitation 0.00 in - - ()
Sea Level Pressure  
Sea Level Pressure 29.89 in    
Wind  
Wind Speed 4 mph (WSW)    
Max Wind Speed 10 mph    
Max Gust Speed 17 mph    
Visibility 9 miles    
Events      
Averages and records for this station are not official NWS values.
T = Trace of Precipitation, MM = Missing Value Source: NWS Daily Summary

Daily Weather History Graph

Daily Weather History Graph

Search for Another Location

Airport or City:

Trip Planner

Search our weather history database for the weather conditions in past years. The results will help you decide how hot, cold, wet, or windy it might be!

Date:

Astronomy

Aug. 30, 2014 Rise Set
Actual Time 6:47 AM CDT 8:02 PM CDT
Civil Twilight 6:18 AM CDT 8:31 PM CDT
Nautical Twilight 5:42 AM CDT 9:06 PM CDT
Astronomical Twilight 5:05 AM CDT 9:43 PM CDT
Moon 11:43 AM CDT (8/30) 10:29 PM CDT (8/30)
Length of Visible Light 14h 13m
Length of Day
13h 15m
Waxing Crescent, 23% of the Moon is Illuminated
Aug 30
Waxing Crescent
Sep 2
First Quarter
Sep 8
Full
Sep 15
Last Quarter
Sep 24
New

Hourly Weather History & Observations

Time (CDT) Temp. Dew Point Humidity Pressure Visibility Wind Dir Wind Speed Gust Speed Precip Events Conditions
12:15 AM 64.4 °F 64.4 °F 100% 29.84 in 10.0 mi Calm Calm - N/A   Unknown
12:35 AM 64.4 °F 62.6 °F 94% 29.84 in 10.0 mi Calm Calm - N/A   Mostly Cloudy
12:55 AM 64.4 °F 64.4 °F 100% 29.84 in 10.0 mi Calm Calm - N/A   Unknown
1:15 AM 64.4 °F 64.4 °F 100% 29.84 in 10.0 mi Calm Calm - N/A   Scattered Clouds
1:35 AM 64.4 °F 64.4 °F 100% 29.85 in 10.0 mi West 5.8 mph - N/A   Unknown
1:55 AM 66.2 °F 64.4 °F 94% 29.84 in 10.0 mi Calm Calm - N/A   Unknown
2:15 AM 66.2 °F 64.4 °F 94% 29.85 in 10.0 mi Calm Calm - N/A   Unknown
2:35 AM 66.2 °F 64.4 °F 94% 29.85 in 10.0 mi West 3.5 mph - N/A   Mostly Cloudy
2:55 AM 64.4 °F 64.4 °F 100% 29.85 in 10.0 mi WSW 3.5 mph - N/A   Unknown
3:15 AM 64.4 °F 64.4 °F 100% 29.86 in 10.0 mi Calm Calm - N/A   Unknown
3:55 AM 64.4 °F 64.4 °F 100% 29.87 in 10.0 mi Calm Calm - N/A   Unknown
4:15 AM 64.4 °F 64.4 °F 100% 29.87 in 10.0 mi NW 3.5 mph - N/A   Overcast
4:35 AM 64.4 °F 64.4 °F 100% 29.87 in 10.0 mi Calm Calm - N/A   Unknown
4:55 AM 64.4 °F 64.4 °F 100% 29.88 in 10.0 mi Calm Calm - N/A   Unknown
5:35 AM 64.4 °F 64.4 °F 100% 29.88 in 10.0 mi Calm Calm - N/A   Overcast
5:55 AM 66.2 °F 64.4 °F 94% 29.89 in 10.0 mi Variable 6.9 mph - N/A   Unknown
6:15 AM 66.2 °F 64.4 °F 94% 29.89 in 7.0 mi NW 6.9 mph - N/A   Overcast
6:35 AM 66.2 °F 64.4 °F 94% 29.90 in 8.0 mi NNW 6.9 mph - N/A   Unknown
6:55 AM 66.2 °F 66.2 °F 100% 29.91 in 8.0 mi NW 5.8 mph - N/A   Unknown
7:15 AM 66.2 °F 66.2 °F 100% 29.92 in 3.0 mi NW 4.6 mph - N/A   Overcast
7:35 AM 64.4 °F 64.4 °F 100% 29.92 in 1.2 mi WNW 8.1 mph - N/A   Overcast
7:55 AM 64.4 °F 64.4 °F 100% 29.92 in 2.5 mi WNW 8.1 mph - N/A   Overcast
8:15 AM 64.4 °F 64.4 °F 100% 29.93 in 1.8 mi WNW 10.4 mph - N/A   Overcast
8:35 AM 64.4 °F 64.4 °F 100% 29.93 in 2.0 mi WNW 10.4 mph - N/A   Overcast
8:55 AM 62.6 °F 62.6 °F 100% 29.93 in - WNW 9.2 mph 17.3 mph N/A   Overcast
9:15 AM 62.6 °F 62.6 °F 100% 29.94 in 9.0 mi West 8.1 mph - N/A   Overcast
9:35 AM 64.4 °F 62.6 °F 94% 29.94 in 10.0 mi Variable 6.9 mph - N/A   Overcast
9:55 AM 64.4 °F 60.8 °F 88% 29.94 in 10.0 mi West 8.1 mph - N/A   Overcast
10:15 AM 66.2 °F 62.6 °F 88% 29.94 in 10.0 mi West 8.1 mph - N/A   Overcast
10:35 AM 66.2 °F 60.8 °F 83% 29.94 in 10.0 mi Variable 6.9 mph - N/A   Overcast
10:55 AM 66.2 °F 60.8 °F 83% 29.95 in 10.0 mi WNW 8.1 mph - N/A   Overcast
11:15 AM 68.0 °F 62.6 °F 83% 29.95 in 10.0 mi Variable 5.8 mph - N/A   Overcast
11:35 AM 68.0 °F 62.6 °F 83% 29.94 in 10.0 mi West 8.1 mph - N/A   Overcast
11:55 AM 68.0 °F 62.6 °F 83% 29.95 in 10.0 mi West 8.1 mph - N/A   Overcast
12:15 PM 69.8 °F 62.6 °F 78% 29.94 in 10.0 mi West 5.8 mph - N/A   Overcast
12:35 PM 71.6 °F 62.6 °F 73% 29.94 in 10.0 mi Variable 5.8 mph 12.7 mph N/A   Mostly Cloudy
12:55 PM 71.6 °F 62.6 °F 73% 29.94 in 10.0 mi West 8.1 mph - N/A   Mostly Cloudy
1:15 PM 69.8 °F 62.6 °F 78% 29.93 in 10.0 mi West 8.1 mph 15.0 mph N/A   Overcast
1:35 PM 73.4 °F 62.6 °F 69% 29.93 in 10.0 mi Variable 6.9 mph - N/A   Scattered Clouds
1:55 PM 73.4 °F 62.6 °F 69% 29.93 in 10.0 mi WNW 9.2 mph - N/A   Partly Cloudy
2:15 PM 73.4 °F 62.6 °F 69% 29.92 in 10.0 mi WSW 8.1 mph - N/A   Scattered Clouds
3:15 PM 73.4 °F 62.6 °F 69% 29.91 in 10.0 mi WSW 6.9 mph - N/A   Mostly Cloudy
3:35 PM 73.4 °F 62.6 °F 69% 29.90 in 10.0 mi Variable 4.6 mph - N/A   Mostly Cloudy
3:55 PM 73.4 °F 62.6 °F 69% 29.90 in 10.0 mi Variable 4.6 mph - N/A   Mostly Cloudy
4:15 PM 73.4 °F 62.6 °F 69% 29.90 in 10.0 mi Variable 4.6 mph - N/A   Mostly Cloudy
4:35 PM 73.4 °F 62.6 °F 69% 29.89 in 10.0 mi Calm Calm - N/A   Scattered Clouds
4:55 PM 73.4 °F 62.6 °F 69% 29.89 in 10.0 mi WSW 5.8 mph - N/A   Clear
5:15 PM 73.4 °F 62.6 °F 69% 29.88 in 10.0 mi Calm Calm - N/A   Clear
5:35 PM 73.4 °F 62.6 °F 69% 29.87 in 10.0 mi Calm Calm - N/A   Clear
5:55 PM 73.4 °F 62.6 °F 69% 29.87 in 10.0 mi SSW 3.5 mph - N/A   Clear
6:15 PM 73.4 °F 62.6 °F 69% 29.87 in 10.0 mi South 5.8 mph - N/A   Clear
6:35 PM 73.4 °F 62.6 °F 69% 29.87 in 10.0 mi SSE 3.5 mph - N/A   Clear
6:55 PM 73.4 °F 62.6 °F 69% 29.87 in 10.0 mi South 5.8 mph - N/A   Clear
7:15 PM 71.6 °F 64.4 °F 78% 29.87 in 10.0 mi South 5.8 mph - N/A   Clear
7:35 PM 71.6 °F 64.4 °F 78% 29.87 in 10.0 mi SSE 4.6 mph - N/A   Clear
7:55 PM 69.8 °F 64.4 °F 83% 29.86 in 10.0 mi SE 4.6 mph - N/A   Clear
8:15 PM 69.8 °F 64.4 °F 83% 29.87 in 10.0 mi SSE 4.6 mph - N/A   Clear
8:35 PM 68.0 °F 62.6 °F 83% 29.87 in 10.0 mi SSE 4.6 mph - N/A   Clear
8:55 PM 68.0 °F 62.6 °F 83% 29.87 in 10.0 mi SE 5.8 mph - N/A   Clear
9:15 PM 68.0 °F 62.6 °F 83% 29.86 in 10.0 mi SE 5.8 mph - N/A   Unknown
9:35 PM 66.2 °F 60.8 °F 83% 29.87 in 10.0 mi SE 4.6 mph - N/A   Clear
9:55 PM 64.4 °F 60.8 °F 88% 29.86 in 10.0 mi SE 5.8 mph - N/A   Unknown
10:15 PM 66.2 °F 60.8 °F 83% 29.86 in 10.0 mi SE 6.9 mph - N/A   Unknown
10:35 PM 64.4 °F 60.8 °F 88% 29.86 in 10.0 mi Calm Calm - N/A   Unknown
10:55 PM 66.2 °F 60.8 °F 83% 29.85 in 10.0 mi Variable 6.9 mph - N/A   Clear
11:15 PM 64.4 °F 60.8 °F 88% 29.86 in 10.0 mi SE 4.6 mph - N/A   Unknown
11:35 PM 64.4 °F 60.8 °F 88% 29.85 in 10.0 mi Calm Calm - N/A   Unknown
11:55 PM 64.4 °F 60.8 °F 88% 29.85 in 10.0 mi Variable 4.6 mph - N/A   Unknown